DW2199 Weather Reports


Display with metric or nautical units.
time (UTC)temp
F
wind
direction
speed
MPH
gust
MPH
rain 1hr
in
rain 24hr
in
rain mn
in
humidity
%
barometer
mb
20260906124542 61 343 0.0 1.0 0.00 0.00 0.00 83 1016.3
20260906123040 60 343 0.0 1.0 0.00 0.00 0.00 84 1016.3
20260906121540 60 343 0.0 1.0 0.00 0.00 0.00 86 1016.3
20260906120038 59 343 0.0 0.0 0.00 0.00 0.00 88 1016.2
20260906114536 58 343 0.0 0.0 0.00 0.00 0.00 88 1015.8
20260906113024 58 343 0.0 1.0 0.00 0.00 0.00 87 1015.7
20260906111523 58 342 0.0 1.0 0.00 0.00 0.00 88 1015.5
20260906110020 58 343 0.0 2.0 0.00 0.00 0.00 88 1015.4
20260906104519 58 342 0.0 1.0 0.00 0.00 0.00 88 1015.2
20260906103015 59 343 0.0 1.0 0.00 0.00 0.00 87 1014.8
20260906101512 59 342 0.0 1.0 0.00 0.00 0.00 86 1014.7
20260906100010 60 343 0.0 1.0 0.00 0.00 0.00 85 1014.6
20260906094507 61 343 0.0 3.0 0.00 0.00 0.00 84 1014.6
20260906093055 61 343 0.0 1.0 0.00 0.00 0.00 84 1014.5
20260906091545 62 343 0.0 1.0 0.00 0.00 0.00 84 1014.3
20260906090025 62 343 0.0 1.0 0.00 0.00 0.00 83 1014.0
20260906084524 62 343 0.0 1.0 0.00 0.00 0.00 83 1014.0
20260906083010 63 343 0.0 1.0 0.00 0.00 0.00 82 1013.7
20260906081509 63 343 0.0 2.0 0.00 0.00 0.00 81 1013.6
20260906080009 63 343 0.0 3.0 0.00 0.00 0.00 82 1013.6
20260906074506 63 342 0.0 1.0 0.00 0.00 0.00 84 1013.5
20260906073004 63 343 0.0 1.0 0.00 0.00 0.00 83 1013.5
20260906071501 63 343 0.0 1.0 0.00 0.00 0.00 83 1013.3
20260906070101 63 343 0.0 1.0 0.00 0.00 0.00 83 1013.1
20260906064602 64 343 0.0 1.0 0.00 0.00 0.00 84 1013.2
20260906063047 64 342 0.0 0.0 0.00 0.00 0.00 83 1013.2
20260906061547 64 343 0.0 1.0 0.00 0.00 0.00 83 1013.1
20260906060056 64 343 0.0 1.0 0.00 0.00 0.00 83 1013.2
20260906054547 64 342 0.0 0.0 0.00 0.00 0.00 82 1013.1
20260906053043 65 343 0.0 0.0 0.00 0.00 0.00 82 1013.2
20260906051545 65 343 0.0 1.0 0.00 0.00 0.00 82 1013.2
20260906050046 65 342 0.0 1.0 0.00 0.00 0.00 82 1013.2
20260906044542 65 343 0.0 1.0 0.00 0.00 0.00 81 1013.1
20260906043024 65 343 0.0 1.0 0.00 0.00 0.00 81 1013.2
20260906041535 65 343 0.0 4.0 0.00 0.00 0.00 82 1013.2
20260906040008 65 343 0.0 1.0 0.00 0.00 0.00 84 1013.2
20260906034506 65 343 0.0 0.0 0.00 0.00 0.00 83 1013.1
20260906033007 65 343 0.0 1.0 0.00 0.00 0.00 82 1013.1
20260906031504 65 343 0.0 2.0 0.00 0.00 0.00 82 1012.9
20260906030005 65 343 0.0 1.0 0.00 0.00 0.00 82 1012.9
20260906024503 65 342 0.0 1.0 0.00 0.00 0.00 82 1013.0
20260906023002 65 343 0.0 0.0 0.00 0.00 0.00 82 1012.9
20260906021503 65 343 0.0 1.0 0.00 0.00 0.00 81 1012.7
20260906020100 65 343 0.0 1.0 0.00 0.00 0.00 81 1012.6
20260906014549 66 343 0.0 0.0 0.00 0.00 0.00 80 1012.7
20260906013045 66 343 0.0 1.0 0.00 0.00 0.00 79 1012.8
20260906011553 66 343 0.0 2.0 0.00 0.00 0.00 80 1012.8
20260906010043 66 343 0.0 2.0 0.00 0.00 0.00 80 1012.8
20260906004542 67 342 0.0 2.0 0.00 0.00 0.00 80 1012.5
20260906003038 67 342 0.0 1.0 0.00 0.00 0.00 80 1012.4
20260906001536 67 343 0.0 1.0 0.00 0.00 0.00 81 1012.4
20260906000034 68 343 0.0 1.0 0.00 0.00 0.00 80 1012.3
20260905234519 68 343 0.0 1.0 0.00 0.00 0.00 79 1012.1
20260905233017 69 343 0.0 0.0 0.00 0.00 0.00 79 1012.1
20260905231514 70 343 0.0 0.0 0.00 0.00 0.00 77 1012.0
20260905230011 70 343 0.0 1.0 0.00 0.00 0.00 76 1011.8
20260905224517 70 343 0.0 1.0 0.00 0.00 0.00 75 1011.7
20260905223008 71 343 0.0 1.0 0.00 0.00 0.00 72 1011.6
20260905221519 72 343 0.0 1.0 0.00 0.00 0.00 74 1011.5
20260905220005 72 343 0.0 1.0 0.00 0.00 0.00 71 1011.4
20260905214546 73 343 0.0 2.0 0.00 0.00 0.00 68 1011.4
20260905213048 74 342 0.0 1.0 0.00 0.00 0.00 71 1011.2
20260905211533 75 343 0.0 2.0 0.00 0.00 0.00 64 1011.2
20260905210030 76 343 0.0 1.0 0.00 0.00 0.00 62 1011.1
20260905204515 79 343 0.0 3.0 0.00 0.00 0.00 57 1010.9
20260905203014 79 343 1.0 4.0 0.00 0.00 0.00 59 1010.7
20260905201517 78 343 1.0 5.0 0.00 0.00 0.00 56 1010.7
20260905200011 76 183 1.0 6.0 0.00 0.00 0.00 60 1010.6
20260905194510 76 201 1.0 3.0 0.00 0.00 0.00 62 1010.6
20260905193012 76 193 1.0 5.0 0.00 0.00 0.00 60 1010.6
20260905191509 77 174 0.0 4.0 0.00 0.00 0.00 61 1010.7
20260905190007 77 184 0.0 7.0 0.00 0.00 0.00 60 1010.6
20260905184611 78 178 1.0 5.0 0.00 0.00 0.00 59 1010.7
20260905183054 78 247 0.0 9.0 0.00 0.00 0.00 59 1010.6
20260905181551 77 190 0.0 9.0 0.00 0.00 0.00 62 1010.6
20260905180048 76 243 0.0 8.0 0.00 0.00 0.00 63 1010.7
20260905174554 76 193 0.0 4.0 0.00 0.00 0.00 62 1010.7
20260905173045 76 181 1.0 4.0 0.00 0.00 0.00 63 1010.7
20260905171540 75 197 1.0 6.0 0.00 0.00 0.00 65 1010.7
20260905170040 74 201 1.0 5.0 0.00 0.00 0.00 65 1010.8
20260905164526 74 181 0.0 3.0 0.00 0.00 0.00 68 1010.9
20260905163026 74 181 0.0 3.0 0.00 0.00 0.00 69 1010.8
20260905161522 75 190 1.0 4.0 0.00 0.00 0.00 70 1010.9
20260905160022 74 174 0.0 3.0 0.00 0.00 0.00 73 1011.2
20260905154516 72 176 1.0 4.0 0.00 0.00 0.00 74 1011.2
20260905153015 70 188 1.0 3.0 0.00 0.00 0.00 79 1011.3
20260905151511 69 210 0.0 1.0 0.00 0.00 0.00 78 1011.6
20260905150011 70 177 0.0 2.0 0.00 0.00 0.00 77 1011.6
20260905144552 70 204 0.0 1.0 0.00 0.00 0.00 75 1011.3
20260905143052 70 205 0.0 2.0 0.00 0.00 0.00 76 1011.2
20260905141541 70 190 0.0 1.0 0.00 0.00 0.00 75 1011.2
20260905140034 70 190 0.0 1.0 0.00 0.00 0.00 76 1011.3
20260905134523 69 190 0.0 1.0 0.00 0.00 0.00 78 1011.4
20260905133023 68 190 0.0 1.0 0.00 0.00 0.00 79 1011.4
20260905131540 67 190 0.0 3.0 0.00 0.00 0.00 83 1011.3
20260905130021 64 197 1.0 2.0 0.00 0.00 0.00 86 1011.1